{"data":{"norad_id":59374,"intl_designator":"2024-062A","name":"STARLINK-31641","alt_names":[],"object_type":"PAYLOAD","status":"ACTIVE","operator":null,"country":"US","launch_date":"2024-04-02","launch_site_code":"AFWTR","launch_vehicle":null,"mission":null,"orbit_class":"UNKNOWN","rcs_meters":null,"size_class":null,"mass_kg":null,"dimensions":null,"purposes":["comms"],"wikipedia_slug":null,"has_3d_model":false,"image_url":null,"decayed_at":null,"tle_current":{"epoch":"2026-05-24T19:06:33.223104Z","epoch_age_seconds":96146,"freshness":"FRESH","line1":"1 59374U 24062A   26144.79621786 -.00001683  00000+0 -38682-4 0  9995","line2":"2 59374  53.1598 264.2973 0000910  86.1383 273.9723 15.34397453121284","mean_motion":15.34397453,"eccentricity":9.1e-5,"inclination_deg":53.1598,"raan_deg":264.2973,"arg_perigee_deg":86.1383,"mean_anomaly_deg":273.9723,"bstar":-3.8682e-5,"rev_number":12128,"period_min":93.847913862511,"perigee_km":462.08829328758,"apogee_km":463.33332758908,"semimajor_km":6840.8478104383,"source":"CELESTRAK","updated_at":"2026-05-25T13:38:18.913157Z"}}}